When you browse on this site, cookies collect data to enhance your experience and personalize the content and advertising you see.
Visit our Privacy Policy to learn more. By continuing to use the site, you agree to this use of cookies and data.
  • In United Kingdom
  • List of Countries
  • For 7 days
  • Water Temperature
  • Weather Map
  • Weather Widgets
  • user-avatar
    Login

    Hourly Weather Middlesbrough

    Today, 13 December, Friday

    Time Temperature Precipitation Wind Pressure Humidity
    00:00 +3°C° 0 mm 3 mps 724 mmHg 94%
    01:00 +3°C° 0 mm 3 mps 724 mmHg 92%
    02:00 +3°C° 0 mm 4 mps 724 mmHg 91%
    03:00 +3°C° 0 mm 4 mps 724 mmHg 89%
    04:00 +2°C° 0 mm 5 mps 724 mmHg 89%
    05:00 +2°C° 0 mm 5 mps 725 mmHg 88%
    06:00 +2°C° 0 mm 5 mps 725 mmHg 89%
    07:00 +2°C° 0 mm 5 mps 726 mmHg 89%
    08:00 +2°C° 0 mm 6 mps 726 mmHg 88%
    09:00 +2°C° 0 mm 6 mps 727 mmHg 87%
    10:00 +3°C° 0 mm 6 mps 727 mmHg 84%
    11:00 +4°C° 0 mm 6 mps 728 mmHg 82%
    12:00 +5°C° 0 mm 6 mps 728 mmHg 79%
    13:00 +5°C° 0 mm 6 mps 728 mmHg 81%
    14:00 +5°C° 0 mm 5 mps 729 mmHg 82%
    15:00 +5°C° 0 mm 5 mps 729 mmHg 83%
    16:00 +5°C° 0 mm 5 mps 729 mmHg 85%
    17:00 +3°C° 0 mm 5 mps 729 mmHg 86%
    18:00 +3°C° 0 mm 5 mps 729 mmHg 88%
    19:00 +3°C° 0.1 mm 6 mps 729 mmHg 88%
    20:00 +3°C° 0.1 mm 6 mps 730 mmHg 87%
    21:00 +4°C° 0.1 mm 7 mps 730 mmHg 87%
    22:00 +3°C° 0.1 mm 7 mps 730 mmHg 85%
    23:00 +3°C° 0.1 mm 7 mps 730 mmHg 84%

    Tomorrow, 14 December, Saturday

    Time Temperature Precipitation Wind Pressure Humidity
    00:00 +2°C° 0.1 mm 7 mps 730 mmHg 82%
    01:00 +2°C° 0 mm 7 mps 730 mmHg 82%
    02:00 +2°C° 0 mm 7 mps 730 mmHg 82%
    03:00 +1°C° 0 mm 8 mps 730 mmHg 82%
    04:00 +1°C° 0 mm 8 mps 730 mmHg 81%
    05:00 +1°C° 0 mm 8 mps 731 mmHg 79%
    06:00 0°C° 0 mm 8 mps 731 mmHg 78%
    07:00 0°C° 0 mm 9 mps 732 mmHg 78%
    08:00 0°C° 0 mm 9 mps 732 mmHg 78%
    09:00 0°C° 0 mm 10 mps 733 mmHg 78%
    10:00 +1°C° 0 mm 10 mps 733 mmHg 73%
    11:00 +1°C° 0 mm 10 mps 734 mmHg 69%
    12:00 +2°C° 0 mm 11 mps 734 mmHg 65%
    13:00 +1°C° 0 mm 11 mps 735 mmHg 65%
    14:00 +1°C° 0 mm 10 mps 735 mmHg 65%
    15:00 0°C° 0 mm 10 mps 736 mmHg 65%
    16:00 0°C° 0 mm 10 mps 736 mmHg 67%
    17:00 0°C° 0 mm 9 mps 736 mmHg 69%
    18:00 0°C° 0 mm 9 mps 736 mmHg 71%
    19:00 -1°C° 0.2 mm 8 mps 735 mmHg 78%
    20:00 -1°C° 0.2 mm 7 mps 735 mmHg 85%
    21:00 -2°C° 0.2 mm 6 mps 734 mmHg 92%
    22:00 -1°C° 0.2 mm 5 mps 734 mmHg 93%
    23:00 -1°C° 0.2 mm 4 mps 733 mmHg 95%

    Day after tomorrow, 15 December, Sunday

    Time Temperature Precipitation Wind Pressure Humidity
    00:00 0°C° 0.2 mm 3 mps 733 mmHg 96%
    01:00 -1°C° 0 mm 4 mps 733 mmHg 94%
    02:00 0°C° 0 mm 4 mps 733 mmHg 93%
    03:00 0°C° 0 mm 5 mps 733 mmHg 91%
    04:00 -1°C° 0 mm 6 mps 734 mmHg 86%
    05:00 -1°C° 0 mm 7 mps 736 mmHg 81%
    06:00 -1°C° 0 mm 7 mps 737 mmHg 75%
    07:00 -1°C° 0 mm 7 mps 738 mmHg 74%
    08:00 -1°C° 0 mm 7 mps 739 mmHg 73%
    09:00 -1°C° 0 mm 7 mps 740 mmHg 72%
    10:00 -1°C° 0 mm 7 mps 741 mmHg 72%
    11:00 0°C° 0 mm 7 mps 741 mmHg 72%
    12:00 0°C° 0 mm 8 mps 741 mmHg 71%
    13:00 +1°C° 0.3 mm 8 mps 741 mmHg 77%
    14:00 +1°C° 0.3 mm 8 mps 740 mmHg 83%
    15:00 +1°C° 0.3 mm 8 mps 740 mmHg 89%
    16:00 +1°C° 0.1 mm 8 mps 740 mmHg 87%
    17:00 0°C° 0.1 mm 7 mps 740 mmHg 85%
    18:00 0°C° 0.1 mm 7 mps 740 mmHg 84%
    19:00 0°C° 0 mm 7 mps 741 mmHg 84%
    20:00 0°C° 0 mm 8 mps 742 mmHg 84%
    21:00 0°C° 0 mm 8 mps 742 mmHg 84%
    22:00 0°C° 0 mm 8 mps 742 mmHg 85%
    23:00 0°C° 0 mm 9 mps 742 mmHg 87%

    16 December, Monday

    Time Temperature Precipitation Wind Pressure Humidity
    00:00 +1°C° 0 mm 9 mps 742 mmHg 88%
    01:00 +1°C° 0 mm 10 mps 741 mmHg 86%
    02:00 +1°C° 0 mm 10 mps 741 mmHg 84%
    03:00 +1°C° 0 mm 10 mps 741 mmHg 82%
    04:00 +1°C° 0 mm 10 mps 741 mmHg 82%
    05:00 +1°C° 0 mm 10 mps 741 mmHg 83%
    06:00 +1°C° 0 mm 9 mps 741 mmHg 83%
    07:00 0°C° 0 mm 9 mps 742 mmHg 84%
    08:00 0°C° 0 mm 8 mps 742 mmHg 84%
    09:00 0°C° 0 mm 8 mps 743 mmHg 85%
    10:00 +1°C° 0 mm 8 mps 744 mmHg 84%
    11:00 +2°C° 0 mm 7 mps 744 mmHg 82%
    12:00 +3°C° 0 mm 7 mps 745 mmHg 80%
    13:00 +3°C° 0 mm 7 mps 745 mmHg 81%
    14:00 +2°C° 0 mm 6 mps 745 mmHg 81%
    15:00 +2°C° 0 mm 6 mps 746 mmHg 81%
    16:00 +1°C° 0 mm 6 mps 746 mmHg 83%
    17:00 +1°C° 0 mm 5 mps 746 mmHg 84%
    18:00 0°C° 0 mm 5 mps 746 mmHg 86%
    19:00 0°C° 0 mm 5 mps 747 mmHg 87%
    20:00 0°C° 0 mm 5 mps 747 mmHg 87%
    21:00 0°C° 0 mm 5 mps 747 mmHg 88%
    22:00 0°C° 0 mm 4 mps 747 mmHg 88%
    23:00 0°C° 0 mm 4 mps 747 mmHg 89%

    17 December, Tuesday

    Time Temperature Precipitation Wind Pressure Humidity
    00:00 0°C° 0 mm 4 mps 747 mmHg 89%
    01:00 +1°C° 0 mm 3 mps 747 mmHg 89%
    02:00 +1°C° 0 mm 3 mps 747 mmHg 88%
    03:00 +1°C° 0 mm 3 mps 747 mmHg 88%
    04:00 +1°C° 0 mm 3 mps 747 mmHg 88%
    05:00 +2°C° 0 mm 2 mps 747 mmHg 88%
    06:00 +2°C° 0 mm 2 mps 747 mmHg 88%
    07:00 +2°C° 0 mm 2 mps 747 mmHg 87%
    08:00 +2°C° 0 mm 2 mps 747 mmHg 87%
    09:00 +2°C° 0 mm 2 mps 748 mmHg 87%
    10:00 +3°C° 0 mm 2 mps 748 mmHg 85%
    11:00 +3°C° 0 mm 2 mps 748 mmHg 84%
    12:00 +3°C° 0 mm 3 mps 748 mmHg 83%
    13:00 +3°C° 0 mm 3 mps 748 mmHg 84%
    14:00 +2°C° 0 mm 3 mps 748 mmHg 86%
    15:00 +2°C° 0 mm 3 mps 748 mmHg 88%
    16:00 +1°C° 0 mm 4 mps 748 mmHg 88%
    17:00 0°C° 0 mm 4 mps 749 mmHg 89%
    18:00 0°C° 0 mm 4 mps 749 mmHg 90%
    19:00 0°C° 0 mm 4 mps 749 mmHg 90%
    20:00 0°C° 0 mm 4 mps 750 mmHg 90%
    21:00 -1°C° 0 mm 5 mps 750 mmHg 91%
    22:00 0°C° 0 mm 5 mps 751 mmHg 91%
    23:00 0°C° 0 mm 5 mps 751 mmHg 91%

    18 December, Wednesday

    Time Temperature Precipitation Wind Pressure Humidity
    00:00 0°C° 0 mm 4 mps 751 mmHg 91%
    01:00 0°C° 0 mm 4 mps 752 mmHg 91%
    02:00 0°C° 0 mm 4 mps 752 mmHg 91%
    03:00 0°C° 0 mm 4 mps 752 mmHg 91%
    04:00 -1°C° 0 mm 4 mps 752 mmHg 91%
    05:00 -1°C° 0 mm 4 mps 753 mmHg 92%
    06:00 -1°C° 0 mm 4 mps 753 mmHg 92%
    07:00 -1°C° 0 mm 4 mps 753 mmHg 91%
    08:00 0°C° 0 mm 3 mps 754 mmHg 91%
    09:00 0°C° 0 mm 3 mps 754 mmHg 91%
    10:00 +1°C° 0 mm 3 mps 754 mmHg 89%
    11:00 +2°C° 0 mm 3 mps 754 mmHg 87%
    12:00 +4°C° 0 mm 2 mps 755 mmHg 85%
    13:00 +3°C° 0 mm 2 mps 755 mmHg 87%
    14:00 +3°C° 0 mm 2 mps 755 mmHg 89%
    15:00 +2°C° 0 mm 2 mps 755 mmHg 91%
    16:00 +2°C° 0 mm 2 mps 755 mmHg 92%
    17:00 +1°C° 0 mm 2 mps 755 mmHg 92%
    18:00 +1°C° 0 mm 2 mps 755 mmHg 93%
    19:00 +1°C° 0 mm 2 mps 755 mmHg 93%
    20:00 +1°C° 0 mm 2 mps 754 mmHg 93%
    21:00 +1°C° 0 mm 2 mps 754 mmHg 94%
    22:00 +1°C° 0 mm 2 mps 754 mmHg 94%
    23:00 +1°C° 0 mm 2 mps 754 mmHg 94%
    Show more